owner,sensor,date,latitude,longitude,vertical_datum,mass_concentration_of_oxygen_in_sea_water,qcFlag 
DISL,ioos:station:DISL:DISL:1,2017-09-01T00:00:00Z,30.2513,-88.0778,2.094,8.11,1111122 
DISL,ioos:station:DISL:DISL:1,2017-09-01T00:30:00Z,30.2513,-88.0778,2.034,8.3,1111122 
DISL,ioos:station:DISL:DISL:1,2017-09-01T01:00:00Z,30.2513,-88.0778,2.107,7.8,1111122 
DISL,ioos:station:DISL:DISL:1,2017-09-01T01:30:00Z,30.2513,-88.0778,2.119,7.75,1111122 
DISL,ioos:station:DISL:DISL:1,2017-09-01T02:00:00Z,30.2513,-88.0778,2.114,7.8,1111122 
DISL,ioos:station:DISL:DISL:1,2017-09-01T02:30:00Z,30.2513,-88.0778,2.132,7.6,1111122 
DISL,ioos:station:DISL:DISL:1,2017-09-01T03:00:00Z,30.2513,-88.0778,2.138,7.83,1111122 
DISL,ioos:station:DISL:DISL:1,2017-09-01T03:30:00Z,30.2513,-88.0778,2.144,7.3,1111122 
DISL,ioos:station:DISL:DISL:1,2017-09-01T04:00:00Z,30.2513,-88.0778,2.16,6.5,1111122 
DISL,ioos:station:DISL:DISL:1,2017-09-01T04:30:00Z,30.2513,-88.0778,2.163,6.89,1111122 
DISL,ioos:station:DISL:DISL:1,2017-09-01T05:00:00Z,30.2513,-88.0778,2.174,6.57,1111122 
DISL,ioos:station:DISL:DISL:1,2017-09-01T05:30:00Z,30.2513,-88.0778,2.175,6.72,1111122 
DISL,ioos:station:DISL:DISL:1,2017-09-01T06:00:00Z,30.2513,-88.0778,2.175,6.64,1111122 
DISL,ioos:station:DISL:DISL:1,2017-09-01T06:30:00Z,30.2513,-88.0778,2.19,6.33,1111122 
DISL,ioos:station:DISL:DISL:1,2017-09-01T07:00:00Z,30.2513,-88.0778,2.213,6.07,1111122 
DISL,ioos:station:DISL:DISL:1,2017-09-01T07:30:00Z,30.2513,-88.0778,2.235,6.52,1111122 
DISL,ioos:station:DISL:DISL:1,2017-09-01T08:00:00Z,30.2513,-88.0778,2.244,6.34,1111122 
DISL,ioos:station:DISL:DISL:1,2017-09-01T08:30:00Z,30.2513,-88.0778,2.26,6.1,1111122 
DISL,ioos:station:DISL:DISL:1,2017-09-01T09:00:00Z,30.2513,-88.0778,2.275,6.2,1111122 
DISL,ioos:station:DISL:DISL:1,2017-09-01T09:30:00Z,30.2513,-88.0778,2.288,6.4,1111122 
DISL,ioos:station:DISL:DISL:1,2017-09-01T10:00:00Z,30.2513,-88.0778,2.189,6.45,1111122 
DISL,ioos:station:DISL:DISL:1,2017-09-01T10:30:00Z,30.2513,-88.0778,2.326,6.24,1111122 
DISL,ioos:station:DISL:DISL:1,2017-09-01T11:00:00Z,30.2513,-88.0778,2.323,6.04,1111122 
DISL,ioos:station:DISL:DISL:1,2017-09-01T11:30:00Z,30.2513,-88.0778,2.337,6.27,1111122 
DISL,ioos:station:DISL:DISL:1,2017-09-01T12:00:00Z,30.2513,-88.0778,2.322,6.14,1111122 
DISL,ioos:station:DISL:DISL:1,2017-09-01T12:30:00Z,30.2513,-88.0778,2.337,5.7,1111122 
DISL,ioos:station:DISL:DISL:1,2017-09-01T13:00:00Z,30.2513,-88.0778,2.349,6.16,1111122 
DISL,ioos:station:DISL:DISL:1,2017-09-01T13:30:00Z,30.2513,-88.0778,2.35,6.12,1111122 
DISL,ioos:station:DISL:DISL:1,2017-09-01T14:00:00Z,30.2513,-88.0778,2.337,6.34,1111122 
DISL,ioos:station:DISL:DISL:1,2017-09-01T14:30:00Z,30.2513,-88.0778,2.316,6.7,1111122 
DISL,ioos:station:DISL:DISL:1,2017-09-01T15:00:00Z,30.2513,-88.0778,2.291,6.7,1111122 
DISL,ioos:station:DISL:DISL:1,2017-09-01T15:30:00Z,30.2513,-88.0778,2.283,7.08,1111122 
DISL,ioos:station:DISL:DISL:1,2017-09-01T16:00:00Z,30.2513,-88.0778,2.266,7.32,1111122 
DISL,ioos:station:DISL:DISL:1,2017-09-01T16:30:00Z,30.2513,-88.0778,2.263,7.41,1111122 
DISL,ioos:station:DISL:DISL:1,2017-09-01T17:00:00Z,30.2513,-88.0778,2.226,7.68,1111122 
DISL,ioos:station:DISL:DISL:1,2017-09-01T17:30:00Z,30.2513,-88.0778,2.179,8.25,1111122 
DISL,ioos:station:DISL:DISL:1,2017-09-01T18:00:00Z,30.2513,-88.0778,2.165,8.37,1111122 
DISL,ioos:station:DISL:DISL:1,2017-09-01T18:30:00Z,30.2513,-88.0778,2.144,8.6,1111122 
DISL,ioos:station:DISL:DISL:1,2017-09-01T19:00:00Z,30.2513,-88.0778,2.089,9.17,1111122 
DISL,ioos:station:DISL:DISL:1,2017-09-01T19:30:00Z,30.2513,-88.0778,2.097,9.04,1111122 
DISL,ioos:station:DISL:DISL:1,2017-09-01T20:00:00Z,30.2513,-88.0778,2.072,9.56,1111122 
DISL,ioos:station:DISL:DISL:1,2017-09-01T20:30:00Z,30.2513,-88.0778,2.063,9.59,1111122 
DISL,ioos:station:DISL:DISL:1,2017-09-01T21:00:00Z,30.2513,-88.0778,2.028,9.79,1111122 
DISL,ioos:station:DISL:DISL:1,2017-09-01T21:30:00Z,30.2513,-88.0778,2.031,11.32,1111122 
DISL,ioos:station:DISL:DISL:1,2017-09-01T22:00:00Z,30.2513,-88.0778,2.022,11.47,1111122 
DISL,ioos:station:DISL:DISL:1,2017-09-01T22:30:00Z,30.2513,-88.0778,1.985,11.3,1111122 
DISL,ioos:station:DISL:DISL:1,2017-09-01T23:00:00Z,30.2513,-88.0778,1.972,10.87,1111122 
DISL,ioos:station:DISL:DISL:1,2017-09-01T23:30:00Z,30.2513,-88.0778,1.981,11.46,1111122 
DISL,ioos:station:DISL:DISL:1,2017-09-02T00:00:00Z,30.2513,-88.0778,1.977,10.72,1111122 
DISL,ioos:station:DISL:DISL:1,2017-09-02T00:30:00Z,30.2513,-88.0778,1.973,10.5,1111122 
DISL,ioos:station:DISL:DISL:1,2017-09-02T01:00:00Z,30.2513,-88.0778,1.98,10.73,1111122 
DISL,ioos:station:DISL:DISL:1,2017-09-02T01:30:00Z,30.2513,-88.0778,2.002,10.61,1111122 
DISL,ioos:station:DISL:DISL:1,2017-09-02T02:00:00Z,30.2513,-88.0778,2.011,9.17,1111122 
DISL,ioos:station:DISL:DISL:1,2017-09-02T02:30:00Z,30.2513,-88.0778,2.039,9.52,1111122 
DISL,ioos:station:DISL:DISL:1,2017-09-02T03:00:00Z,30.2513,-88.0778,2.057,9.72,1111122 
DISL,ioos:station:DISL:DISL:1,2017-09-02T03:30:00Z,30.2513,-88.0778,2.057,9.45,1111122 
DISL,ioos:station:DISL:DISL:1,2017-09-02T04:00:00Z,30.2513,-88.0778,2.043,10.21,1111122 
DISL,ioos:station:DISL:DISL:1,2017-09-02T04:30:00Z,30.2513,-88.0778,2.11,9.02,1111122 
DISL,ioos:station:DISL:DISL:1,2017-09-02T05:00:00Z,30.2513,-88.0778,2.103,8.25,1111122 
DISL,ioos:station:DISL:DISL:1,2017-09-02T05:30:00Z,30.2513,-88.0778,2.106,8.94,1111122 
DISL,ioos:station:DISL:DISL:1,2017-09-02T06:00:00Z,30.2513,-88.0778,2.138,8.67,1111122 
DISL,ioos:station:DISL:DISL:1,2017-09-02T06:30:00Z,30.2513,-88.0778,2.139,8.46,1111122 
DISL,ioos:station:DISL:DISL:1,2017-09-02T07:00:00Z,30.2513,-88.0778,2.182,7.3,1111122 
DISL,ioos:station:DISL:DISL:1,2017-09-02T07:30:00Z,30.2513,-88.0778,2.152,7.7,1111122 
DISL,ioos:station:DISL:DISL:1,2017-09-02T08:00:00Z,30.2513,-88.0778,2.191,7.98,1111122 
DISL,ioos:station:DISL:DISL:1,2017-09-02T08:30:00Z,30.2513,-88.0778,2.201,8.43,1111122 
DISL,ioos:station:DISL:DISL:1,2017-09-02T09:00:00Z,30.2513,-88.0778,2.216,8.54,1111122 
DISL,ioos:station:DISL:DISL:1,2017-09-02T09:30:00Z,30.2513,-88.0778,2.223,8.53,1111122 
DISL,ioos:station:DISL:DISL:1,2017-09-02T10:00:00Z,30.2513,-88.0778,2.226,7.97,1111122 
DISL,ioos:station:DISL:DISL:1,2017-09-02T10:30:00Z,30.2513,-88.0778,2.233,8.14,1111122 
DISL,ioos:station:DISL:DISL:1,2017-09-02T11:00:00Z,30.2513,-88.0778,2.259,7.66,1111122 
DISL,ioos:station:DISL:DISL:1,2017-09-02T11:30:00Z,30.2513,-88.0778,2.26,7.83,1111122 
DISL,ioos:station:DISL:DISL:1,2017-09-02T12:00:00Z,30.2513,-88.0778,2.265,7.14,1111122 
DISL,ioos:station:DISL:DISL:1,2017-09-02T12:30:00Z,30.2513,-88.0778,2.283,6.29,1111122 
DISL,ioos:station:DISL:DISL:1,2017-09-02T13:00:00Z,30.2513,-88.0778,2.281,5.91,1111122 
DISL,ioos:station:DISL:DISL:1,2017-09-02T13:30:00Z,30.2513,-88.0778,2.302,6.07,1111122 
DISL,ioos:station:DISL:DISL:1,2017-09-02T14:00:00Z,30.2513,-88.0778,2.37,7.61,1111122 
DISL,ioos:station:DISL:DISL:1,2017-09-02T14:30:00Z,30.2513,-88.0778,2.263,7.5,1111122 
DISL,ioos:station:DISL:DISL:1,2017-09-02T15:00:00Z,30.2513,-88.0778,2.264,7.97,1111122 
DISL,ioos:station:DISL:DISL:1,2017-09-02T15:30:00Z,30.2513,-88.0778,2.26,8.13,1111122 
DISL,ioos:station:DISL:DISL:1,2017-09-02T16:00:00Z,30.2513,-88.0778,2.231,8.36,1111122 
DISL,ioos:station:DISL:DISL:1,2017-09-02T16:30:00Z,30.2513,-88.0778,2.215,8.42,1111122 
DISL,ioos:station:DISL:DISL:1,2017-09-02T17:00:00Z,30.2513,-88.0778,2.186,8.53,1111122 
DISL,ioos:station:DISL:DISL:1,2017-09-02T17:30:00Z,30.2513,-88.0778,2.156,8.43,1111122 
DISL,ioos:station:DISL:DISL:1,2017-09-02T18:00:00Z,30.2513,-88.0778,2.14,9.7,1111122 
DISL,ioos:station:DISL:DISL:1,2017-09-02T18:30:00Z,30.2513,-88.0778,2.124,10.42,1111122 
DISL,ioos:station:DISL:DISL:1,2017-09-02T19:00:00Z,30.2513,-88.0778,2.11,10.7,1111122 
DISL,ioos:station:DISL:DISL:1,2017-09-02T19:30:00Z,30.2513,-88.0778,2.08,10.77,1111122 
DISL,ioos:station:DISL:DISL:1,2017-09-02T20:00:00Z,30.2513,-88.0778,2.061,10.84,1111122 
DISL,ioos:station:DISL:DISL:1,2017-09-02T20:30:00Z,30.2513,-88.0778,2.027,10.91,1111122 
DISL,ioos:station:DISL:DISL:1,2017-09-02T21:00:00Z,30.2513,-88.0778,2.002,10.67,1111122 
DISL,ioos:station:DISL:DISL:1,2017-09-02T21:30:00Z,30.2513,-88.0778,1.991,10.98,1111122 
DISL,ioos:station:DISL:DISL:1,2017-09-02T22:00:00Z,30.2513,-88.0778,1.982,11.16,1111122 
DISL,ioos:station:DISL:DISL:1,2017-09-02T22:30:00Z,30.2513,-88.0778,1.965,11.2,1111122 
DISL,ioos:station:DISL:DISL:1,2017-09-02T23:00:00Z,30.2513,-88.0778,1.939,11.38,1111122 
DISL,ioos:station:DISL:DISL:1,2017-09-02T23:30:00Z,30.2513,-88.0778,1.934,10.92,1111122 
DISL,ioos:station:DISL:DISL:1,2017-09-03T00:00:00Z,30.2513,-88.0778,1.945,11.35,1111122 
DISL,ioos:station:DISL:DISL:1,2017-09-03T00:30:00Z,30.2513,-88.0778,1.942,10.98,1111122 
DISL,ioos:station:DISL:DISL:1,2017-09-03T01:00:00Z,30.2513,-88.0778,1.941,10.26,1111122 
DISL,ioos:station:DISL:DISL:1,2017-09-03T01:30:00Z,30.2513,-88.0778,1.956,9.95,1111122 
DISL,ioos:station:DISL:DISL:1,2017-09-03T02:00:00Z,30.2513,-88.0778,1.958,9.53,1111122 
DISL,ioos:station:DISL:DISL:1,2017-09-03T02:30:00Z,30.2513,-88.0778,1.962,9.97,1111122 
DISL,ioos:station:DISL:DISL:1,2017-09-03T03:00:00Z,30.2513,-88.0778,1.98,9.05,1111122 
DISL,ioos:station:DISL:DISL:1,2017-09-03T03:30:00Z,30.2513,-88.0778,2.005,8.5,1111122 
DISL,ioos:station:DISL:DISL:1,2017-09-03T04:00:00Z,30.2513,-88.0778,2.041,8.51,1111122 
DISL,ioos:station:DISL:DISL:1,2017-09-03T04:30:00Z,30.2513,-88.0778,2.047,8.6,1111122 
DISL,ioos:station:DISL:DISL:1,2017-09-03T05:00:00Z,30.2513,-88.0778,2.082,9.44,1111122 
DISL,ioos:station:DISL:DISL:1,2017-09-03T05:30:00Z,30.2513,-88.0778,2.076,9.59,1111122 
DISL,ioos:station:DISL:DISL:1,2017-09-03T06:00:00Z,30.2513,-88.0778,2.09,9.15,1111122 
DISL,ioos:station:DISL:DISL:1,2017-09-03T06:30:00Z,30.2513,-88.0778,2.106,9.04,1111122 
DISL,ioos:station:DISL:DISL:1,2017-09-03T07:00:00Z,30.2513,-88.0778,2.116,9.19,1111122 
DISL,ioos:station:DISL:DISL:1,2017-09-03T07:30:00Z,30.2513,-88.0778,2.124,8.77,1111122 
DISL,ioos:station:DISL:DISL:1,2017-09-03T08:00:00Z,30.2513,-88.0778,2.142,8.5,1111122 
DISL,ioos:station:DISL:DISL:1,2017-09-03T08:30:00Z,30.2513,-88.0778,2.179,8.04,1111122 
DISL,ioos:station:DISL:DISL:1,2017-09-03T09:00:00Z,30.2513,-88.0778,2.198,6.55,1111122 
DISL,ioos:station:DISL:DISL:1,2017-09-03T09:30:00Z,30.2513,-88.0778,2.211,6.36,1111122 
DISL,ioos:station:DISL:DISL:1,2017-09-03T10:00:00Z,30.2513,-88.0778,2.234,6.38,1111122 
DISL,ioos:station:DISL:DISL:1,2017-09-03T10:30:00Z,30.2513,-88.0778,2.249,6.66,1111122 
DISL,ioos:station:DISL:DISL:1,2017-09-03T11:00:00Z,30.2513,-88.0778,2.262,6.4,1111122 
DISL,ioos:station:DISL:DISL:1,2017-09-03T11:30:00Z,30.2513,-88.0778,2.289,6.32,1111122 
DISL,ioos:station:DISL:DISL:1,2017-09-03T12:00:00Z,30.2513,-88.0778,2.302,6.46,1111122 
DISL,ioos:station:DISL:DISL:1,2017-09-03T12:30:00Z,30.2513,-88.0778,2.313,6.58,1111122 
DISL,ioos:station:DISL:DISL:1,2017-09-03T13:00:00Z,30.2513,-88.0778,2.326,6.79,1111122 
DISL,ioos:station:DISL:DISL:1,2017-09-03T13:30:00Z,30.2513,-88.0778,2.325,7.05,1111122 
DISL,ioos:station:DISL:DISL:1,2017-09-03T14:00:00Z,30.2513,-88.0778,2.326,6.98,1111122 
DISL,ioos:station:DISL:DISL:1,2017-09-03T14:30:00Z,30.2513,-88.0778,2.333,6.98,1111122 
DISL,ioos:station:DISL:DISL:1,2017-09-03T15:00:00Z,30.2513,-88.0778,2.331,6.57,1111122 
DISL,ioos:station:DISL:DISL:1,2017-09-03T15:30:00Z,30.2513,-88.0778,2.296,6.97,1111122 
DISL,ioos:station:DISL:DISL:1,2017-09-03T16:00:00Z,30.2513,-88.0778,2.283,7.07,1111122 
DISL,ioos:station:DISL:DISL:1,2017-09-03T16:30:00Z,30.2513,-88.0778,2.251,7.32,1111122 
DISL,ioos:station:DISL:DISL:1,2017-09-03T17:00:00Z,30.2513,-88.0778,2.241,7.64,1111122 
DISL,ioos:station:DISL:DISL:1,2017-09-03T17:30:00Z,30.2513,-88.0778,2.216,7.85,1111122 
DISL,ioos:station:DISL:DISL:1,2017-09-03T18:00:00Z,30.2513,-88.0778,2.198,7.83,1111122 
DISL,ioos:station:DISL:DISL:1,2017-09-03T18:30:00Z,30.2513,-88.0778,2.166,9.02,1111122 
DISL,ioos:station:DISL:DISL:1,2017-09-03T19:00:00Z,30.2513,-88.0778,2.144,10.03,1111122 
DISL,ioos:station:DISL:DISL:1,2017-09-03T19:30:00Z,30.2513,-88.0778,2.12,10.86,1111122 
DISL,ioos:station:DISL:DISL:1,2017-09-03T20:00:00Z,30.2513,-88.0778,2.093,10.93,1111122 
DISL,ioos:station:DISL:DISL:1,2017-09-03T20:30:00Z,30.2513,-88.0778,2.074,10.93,1111122 
DISL,ioos:station:DISL:DISL:1,2017-09-03T21:00:00Z,30.2513,-88.0778,2.057,10.71,1111122 
DISL,ioos:station:DISL:DISL:1,2017-09-03T21:30:00Z,30.2513,-88.0778,2.015,10.12,1111122 
DISL,ioos:station:DISL:DISL:1,2017-09-03T22:00:00Z,30.2513,-88.0778,2.008,10.43,1111122 
DISL,ioos:station:DISL:DISL:1,2017-09-03T22:30:00Z,30.2513,-88.0778,2.0,9.77,1111122 
DISL,ioos:station:DISL:DISL:1,2017-09-03T23:00:00Z,30.2513,-88.0778,1.976,9.83,1111122 
DISL,ioos:station:DISL:DISL:1,2017-09-03T23:30:00Z,30.2513,-88.0778,1.969,9.68,1111122 
DISL,ioos:station:DISL:DISL:1,2017-09-04T00:00:00Z,30.2513,-88.0778,1.953,9.55,1111122 
DISL,ioos:station:DISL:DISL:1,2017-09-04T00:30:00Z,30.2513,-88.0778,1.955,10.16,1111122 
DISL,ioos:station:DISL:DISL:1,2017-09-04T01:00:00Z,30.2513,-88.0778,1.965,9.88,1111122 
DISL,ioos:station:DISL:DISL:1,2017-09-04T01:30:00Z,30.2513,-88.0778,1.967,8.67,1111122 
DISL,ioos:station:DISL:DISL:1,2017-09-04T02:00:00Z,30.2513,-88.0778,1.977,8.62,1111122 
DISL,ioos:station:DISL:DISL:1,2017-09-04T02:30:00Z,30.2513,-88.0778,1.994,7.95,1111122 
DISL,ioos:station:DISL:DISL:1,2017-09-04T03:00:00Z,30.2513,-88.0778,1.99,8.54,1111122 
DISL,ioos:station:DISL:DISL:1,2017-09-04T03:30:00Z,30.2513,-88.0778,1.996,7.59,1111122 
DISL,ioos:station:DISL:DISL:1,2017-09-04T04:00:00Z,30.2513,-88.0778,2.013,7.41,1111122 
DISL,ioos:station:DISL:DISL:1,2017-09-04T04:30:00Z,30.2513,-88.0778,2.019,7.93,1111122 
DISL,ioos:station:DISL:DISL:1,2017-09-04T05:00:00Z,30.2513,-88.0778,2.043,7.9,1111122 
DISL,ioos:station:DISL:DISL:1,2017-09-04T05:30:00Z,30.2513,-88.0778,2.055,8.45,1111122 
DISL,ioos:station:DISL:DISL:1,2017-09-04T06:00:00Z,30.2513,-88.0778,2.069,8.78,1111122 
DISL,ioos:station:DISL:DISL:1,2017-09-04T06:30:00Z,30.2513,-88.0778,2.078,8.66,1111122 
DISL,ioos:station:DISL:DISL:1,2017-09-04T07:00:00Z,30.2513,-88.0778,2.103,8.23,1111122 
DISL,ioos:station:DISL:DISL:1,2017-09-04T07:30:00Z,30.2513,-88.0778,2.112,8.18,1111122 
DISL,ioos:station:DISL:DISL:1,2017-09-04T08:00:00Z,30.2513,-88.0778,2.134,7.24,1111122 
DISL,ioos:station:DISL:DISL:1,2017-09-04T08:30:00Z,30.2513,-88.0778,2.152,6.1,1111122 
DISL,ioos:station:DISL:DISL:1,2017-09-04T09:00:00Z,30.2513,-88.0778,2.175,5.47,1111122 
DISL,ioos:station:DISL:DISL:1,2017-09-04T09:30:00Z,30.2513,-88.0778,2.198,4.71,1111122 
DISL,ioos:station:DISL:DISL:1,2017-09-04T10:00:00Z,30.2513,-88.0778,2.22,5.64,1111122 
DISL,ioos:station:DISL:DISL:1,2017-09-04T10:30:00Z,30.2513,-88.0778,2.238,5.37,1111122 
DISL,ioos:station:DISL:DISL:1,2017-09-04T11:00:00Z,30.2513,-88.0778,2.268,5.99,1111122 
DISL,ioos:station:DISL:DISL:1,2017-09-04T11:30:00Z,30.2513,-88.0778,2.287,5.4,1111122 
DISL,ioos:station:DISL:DISL:1,2017-09-04T12:00:00Z,30.2513,-88.0778,2.31,5.25,1111122 
DISL,ioos:station:DISL:DISL:1,2017-09-04T12:30:00Z,30.2513,-88.0778,2.326,4.92,1111122 
DISL,ioos:station:DISL:DISL:1,2017-09-04T13:00:00Z,30.2513,-88.0778,2.334,5.03,1111122 
DISL,ioos:station:DISL:DISL:1,2017-09-04T13:30:00Z,30.2513,-88.0778,2.395,5.77,1111122 
DISL,ioos:station:DISL:DISL:1,2017-09-04T14:00:00Z,30.2513,-88.0778,2.359,5.83,1111122 
DISL,ioos:station:DISL:DISL:1,2017-09-04T14:30:00Z,30.2513,-88.0778,2.362,6.82,1111122 
DISL,ioos:station:DISL:DISL:1,2017-09-04T15:00:00Z,30.2513,-88.0778,2.396,6.84,1111122 
DISL,ioos:station:DISL:DISL:1,2017-09-04T15:30:00Z,30.2513,-88.0778,2.359,7.01,1111122 
DISL,ioos:station:DISL:DISL:1,2017-09-04T16:00:00Z,30.2513,-88.0778,2.356,7.6,1111122 
DISL,ioos:station:DISL:DISL:1,2017-09-04T16:30:00Z,30.2513,-88.0778,2.334,7.47,1111122 
DISL,ioos:station:DISL:DISL:1,2017-09-04T17:00:00Z,30.2513,-88.0778,2.322,7.41,1111122 
DISL,ioos:station:DISL:DISL:1,2017-09-04T17:30:00Z,30.2513,-88.0778,2.292,7.38,1111122 
DISL,ioos:station:DISL:DISL:1,2017-09-04T18:00:00Z,30.2513,-88.0778,2.276,7.73,1111122 
DISL,ioos:station:DISL:DISL:1,2017-09-04T18:30:00Z,30.2513,-88.0778,2.22,8.03,1111122 
DISL,ioos:station:DISL:DISL:1,2017-09-04T19:00:00Z,30.2513,-88.0778,2.203,8.41,1111122 
DISL,ioos:station:DISL:DISL:1,2017-09-04T19:30:00Z,30.2513,-88.0778,2.185,8.86,1111122 
DISL,ioos:station:DISL:DISL:1,2017-09-04T20:00:00Z,30.2513,-88.0778,2.148,7.72,1111122 
DISL,ioos:station:DISL:DISL:1,2017-09-04T20:30:00Z,30.2513,-88.0778,2.13,10.43,1111122 
DISL,ioos:station:DISL:DISL:1,2017-09-04T21:00:00Z,30.2513,-88.0778,2.102,11.56,1111122 
DISL,ioos:station:DISL:DISL:1,2017-09-04T21:30:00Z,30.2513,-88.0778,2.088,11.36,1111122 
DISL,ioos:station:DISL:DISL:1,2017-09-04T22:00:00Z,30.2513,-88.0778,2.065,11.16,1111122 
DISL,ioos:station:DISL:DISL:1,2017-09-04T22:30:00Z,30.2513,-88.0778,2.045,10.99,1111122 
DISL,ioos:station:DISL:DISL:1,2017-09-04T23:00:00Z,30.2513,-88.0778,2.042,10.45,1111122 
DISL,ioos:station:DISL:DISL:1,2017-09-04T23:30:00Z,30.2513,-88.0778,2.026,10.32,1111122 
DISL,ioos:station:DISL:DISL:1,2017-09-05T00:00:00Z,30.2513,-88.0778,2.009,9.26,1111122 
DISL,ioos:station:DISL:DISL:1,2017-09-05T00:30:00Z,30.2513,-88.0778,1.986,8.97,1111122 
DISL,ioos:station:DISL:DISL:1,2017-09-05T01:00:00Z,30.2513,-88.0778,2.005,9.32,1111122 
DISL,ioos:station:DISL:DISL:1,2017-09-05T01:30:00Z,30.2513,-88.0778,1.987,8.74,1111122 
DISL,ioos:station:DISL:DISL:1,2017-09-05T02:00:00Z,30.2513,-88.0778,1.998,8.75,1111122 
DISL,ioos:station:DISL:DISL:1,2017-09-05T02:30:00Z,30.2513,-88.0778,1.999,9.06,1111122 
DISL,ioos:station:DISL:DISL:1,2017-09-05T03:00:00Z,30.2513,-88.0778,2.012,9.03,1111122 
DISL,ioos:station:DISL:DISL:1,2017-09-05T03:30:00Z,30.2513,-88.0778,2.011,8.65,1111122 
DISL,ioos:station:DISL:DISL:1,2017-09-05T04:00:00Z,30.2513,-88.0778,2.025,6.94,1111122 
DISL,ioos:station:DISL:DISL:1,2017-09-05T04:30:00Z,30.2513,-88.0778,2.045,6.99,1111122 
DISL,ioos:station:DISL:DISL:1,2017-09-05T05:00:00Z,30.2513,-88.0778,2.062,7.85,1111122 
DISL,ioos:station:DISL:DISL:1,2017-09-05T05:30:00Z,30.2513,-88.0778,2.072,6.61,1111122 
DISL,ioos:station:DISL:DISL:1,2017-09-05T06:00:00Z,30.2513,-88.0778,2.083,7.8,1111122 
DISL,ioos:station:DISL:DISL:1,2017-09-05T06:30:00Z,30.2513,-88.0778,2.097,8.32,1111122 
DISL,ioos:station:DISL:DISL:1,2017-09-05T07:00:00Z,30.2513,-88.0778,2.103,7.91,1111122 
DISL,ioos:station:DISL:DISL:1,2017-09-05T07:30:00Z,30.2513,-88.0778,2.118,8.47,1111122 
DISL,ioos:station:DISL:DISL:1,2017-09-05T08:00:00Z,30.2513,-88.0778,2.134,8.29,1111122 
DISL,ioos:station:DISL:DISL:1,2017-09-05T08:30:00Z,30.2513,-88.0778,2.168,8.31,1111122 
DISL,ioos:station:DISL:DISL:1,2017-09-05T09:00:00Z,30.2513,-88.0778,2.176,6.29,1111122 
DISL,ioos:station:DISL:DISL:1,2017-09-05T09:30:00Z,30.2513,-88.0778,2.187,5.57,1111122 
DISL,ioos:station:DISL:DISL:1,2017-09-05T10:00:00Z,30.2513,-88.0778,2.205,5.24,1111122 
DISL,ioos:station:DISL:DISL:1,2017-09-05T10:30:00Z,30.2513,-88.0778,2.227,4.85,1111122 
DISL,ioos:station:DISL:DISL:1,2017-09-05T11:00:00Z,30.2513,-88.0778,2.242,4.62,1111122 
DISL,ioos:station:DISL:DISL:1,2017-09-05T11:30:00Z,30.2513,-88.0778,2.266,4.97,1111122 
DISL,ioos:station:DISL:DISL:1,2017-09-05T12:00:00Z,30.2513,-88.0778,2.287,4.57,1111122 
DISL,ioos:station:DISL:DISL:1,2017-09-05T12:30:00Z,30.2513,-88.0778,2.296,4.69,1111122 
DISL,ioos:station:DISL:DISL:1,2017-09-05T13:00:00Z,30.2513,-88.0778,2.308,5.04,1111122 
DISL,ioos:station:DISL:DISL:1,2017-09-05T13:30:00Z,30.2513,-88.0778,2.321,4.95,1111122 
DISL,ioos:station:DISL:DISL:1,2017-09-05T14:00:00Z,30.2513,-88.0778,2.338,5.12,1111122 
DISL,ioos:station:DISL:DISL:1,2017-09-05T14:30:00Z,30.2513,-88.0778,2.339,5.29,1111122 
DISL,ioos:station:DISL:DISL:1,2017-09-05T15:00:00Z,30.2513,-88.0778,2.351,5.39,1111122 
DISL,ioos:station:DISL:DISL:1,2017-09-05T15:30:00Z,30.2513,-88.0778,2.374,5.43,1111122 
DISL,ioos:station:DISL:DISL:1,2017-09-05T16:00:00Z,30.2513,-88.0778,2.38,5.7,1111122 
DISL,ioos:station:DISL:DISL:1,2017-09-05T16:30:00Z,30.2513,-88.0778,2.369,6.23,1111122 
DISL,ioos:station:DISL:DISL:1,2017-09-05T17:00:00Z,30.2513,-88.0778,2.372,6.43,1111122 
DISL,ioos:station:DISL:DISL:1,2017-09-05T17:30:00Z,30.2513,-88.0778,2.359,6.69,1111122 
DISL,ioos:station:DISL:DISL:1,2017-09-05T18:00:00Z,30.2513,-88.0778,2.334,7.31,1111122 
DISL,ioos:station:DISL:DISL:1,2017-09-05T18:30:00Z,30.2513,-88.0778,2.31,7.33,1111122 
DISL,ioos:station:DISL:DISL:1,2017-09-05T19:00:00Z,30.2513,-88.0778,2.287,7.88,1111122 
DISL,ioos:station:DISL:DISL:1,2017-09-05T19:30:00Z,30.2513,-88.0778,2.286,7.57,1111122 
DISL,ioos:station:DISL:DISL:1,2017-09-05T20:00:00Z,30.2513,-88.0778,2.255,7.73,1111122 
DISL,ioos:station:DISL:DISL:1,2017-09-05T20:30:00Z,30.2513,-88.0778,2.21,7.6,1111122 
DISL,ioos:station:DISL:DISL:1,2017-09-05T21:00:00Z,30.2513,-88.0778,2.175,8.73,1111122 
DISL,ioos:station:DISL:DISL:1,2017-09-05T21:30:00Z,30.2513,-88.0778,2.162,9.6,1111122 
DISL,ioos:station:DISL:DISL:1,2017-09-05T22:00:00Z,30.2513,-88.0778,2.151,10.44,1111122 
DISL,ioos:station:DISL:DISL:1,2017-09-05T22:30:00Z,30.2513,-88.0778,2.118,10.23,1111122 
DISL,ioos:station:DISL:DISL:1,2017-09-05T23:00:00Z,30.2513,-88.0778,2.098,10.36,1111122 
DISL,ioos:station:DISL:DISL:1,2017-09-05T23:30:00Z,30.2513,-88.0778,2.103,10.09,1111122 
DISL,ioos:station:DISL:DISL:1,2017-09-06T00:00:00Z,30.2513,-88.0778,2.099,9.13,1111122 
DISL,ioos:station:DISL:DISL:1,2017-09-06T00:30:00Z,30.2513,-88.0778,2.114,8.21,1111122 
DISL,ioos:station:DISL:DISL:1,2017-09-06T01:00:00Z,30.2513,-88.0778,2.068,8.53,1111122 
DISL,ioos:station:DISL:DISL:1,2017-09-06T01:30:00Z,30.2513,-88.0778,2.104,7.7,1111122 
DISL,ioos:station:DISL:DISL:1,2017-09-06T02:00:00Z,30.2513,-88.0778,2.114,7.03,1111122 
DISL,ioos:station:DISL:DISL:1,2017-09-06T02:30:00Z,30.2513,-88.0778,2.119,6.94,1111122 
DISL,ioos:station:DISL:DISL:1,2017-09-06T03:00:00Z,30.2513,-88.0778,2.114,7.71,1111122 
DISL,ioos:station:DISL:DISL:1,2017-09-06T03:30:00Z,30.2513,-88.0778,2.109,8.07,1111122 
DISL,ioos:station:DISL:DISL:1,2017-09-06T04:00:00Z,30.2513,-88.0778,2.102,7.77,1111122 
DISL,ioos:station:DISL:DISL:1,2017-09-06T04:30:00Z,30.2513,-88.0778,2.103,7.72,1111122 
DISL,ioos:station:DISL:DISL:1,2017-09-06T05:00:00Z,30.2513,-88.0778,2.108,7.49,1111122 
DISL,ioos:station:DISL:DISL:1,2017-09-06T05:30:00Z,30.2513,-88.0778,2.115,5.95,1111122 
DISL,ioos:station:DISL:DISL:1,2017-09-06T06:00:00Z,30.2513,-88.0778,2.12,6.18,1111122 
DISL,ioos:station:DISL:DISL:1,2017-09-06T06:30:00Z,30.2513,-88.0778,2.129,5.16,1111122 
DISL,ioos:station:DISL:DISL:1,2017-09-06T07:00:00Z,30.2513,-88.0778,2.24,7.21,1111122 
DISL,ioos:station:DISL:DISL:1,2017-09-06T07:30:00Z,30.2513,-88.0778,2.321,7.27,1111122 
DISL,ioos:station:DISL:DISL:1,2017-09-06T08:00:00Z,30.2513,-88.0778,2.153,7.45,1111122 
DISL,ioos:station:DISL:DISL:1,2017-09-06T08:30:00Z,30.2513,-88.0778,2.123,7.31,1111122 
DISL,ioos:station:DISL:DISL:1,2017-09-06T09:00:00Z,30.2513,-88.0778,2.151,6.98,1111122 
DISL,ioos:station:DISL:DISL:1,2017-09-06T09:30:00Z,30.2513,-88.0778,2.147,6.95,1111122 
DISL,ioos:station:DISL:DISL:1,2017-09-06T10:00:00Z,30.2513,-88.0778,2.169,6.75,1111122 
DISL,ioos:station:DISL:DISL:1,2017-09-06T10:30:00Z,30.2513,-88.0778,2.155,6.28,1111122 
DISL,ioos:station:DISL:DISL:1,2017-09-06T11:00:00Z,30.2513,-88.0778,2.196,6.53,1111122 
DISL,ioos:station:DISL:DISL:1,2017-09-06T11:30:00Z,30.2513,-88.0778,2.122,4.59,1111122 
DISL,ioos:station:DISL:DISL:1,2017-09-06T12:00:00Z,30.2513,-88.0778,2.261,4.94,1111122 
DISL,ioos:station:DISL:DISL:1,2017-09-06T12:30:00Z,30.2513,-88.0778,2.26,4.23,1111122 
DISL,ioos:station:DISL:DISL:1,2017-09-06T13:00:00Z,30.2513,-88.0778,2.269,4.52,1111122 
DISL,ioos:station:DISL:DISL:1,2017-09-06T13:30:00Z,30.2513,-88.0778,2.319,4.77,1111122 
DISL,ioos:station:DISL:DISL:1,2017-09-06T14:00:00Z,30.2513,-88.0778,2.285,5.67,1111122 
DISL,ioos:station:DISL:DISL:1,2017-09-06T14:30:00Z,30.2513,-88.0778,2.312,5.42,1111122 
DISL,ioos:station:DISL:DISL:1,2017-09-06T15:00:00Z,30.2513,-88.0778,2.333,5.89,1111122 